"datetime","temp","dp","rain_mm","uv","solar","mb","wind_mph","gust_mph","windchill","rh"
"2018-11-29 00:00:00",11.4,"",0.0,0.0,0,1005.6,2,3,"",""
"2018-11-29 00:01:00",11.4,"",0.0,0.0,0,1005.7,2,4,"",""
"2018-11-29 00:02:00",11.4,"",0.0,0.0,0,1005.6,1,2,"",""
"2018-11-29 00:03:00",11.4,"",0.0,0.0,0,1005.6,2,4,"",""
"2018-11-29 00:04:00",11.4,"",0.0,0.0,0,1005.6,4,7,"",""
"2018-11-29 00:05:00",11.4,"",0.0,0.0,0,1005.5,5,8,"",""
"2018-11-29 00:06:00",11.4,"",0.0,0.0,0,1005.6,3,9,"",""
"2018-11-29 00:07:00",11.4,"",0.0,0.0,0,1005.5,1,3,"",""
"2018-11-29 00:08:00",11.4,"",0.0,0.0,0,1005.6,2,5,"",""
"2018-11-29 00:09:00",11.4,"",0.0,0.0,0,1005.6,1,2,"",""
"2018-11-29 00:10:00",11.4,"",0.0,0.0,0,1005.6,3,7,"",""
"2018-11-29 00:11:00",11.4,"",0.0,0.0,0,1005.5,2,3,"",""
"2018-11-29 00:12:00",11.4,"",0.0,0.0,0,1005.5,5,7,"",""
"2018-11-29 00:13:00",11.4,"",0.0,0.0,0,1005.5,2,4,"",""
"2018-11-29 00:14:00",11.4,"",0.0,0.0,0,1005.5,4,9,"",""
"2018-11-29 00:15:00",11.4,"",0.0,0.0,0,1005.4,2,4,"",""
"2018-11-29 00:16:00",11.4,"",0.0,0.0,0,1005.5,4,9,"",""
"2018-11-29 00:17:00",11.4,"",0.0,0.0,0,1005.4,2,3,"",""
"2018-11-29 00:18:00",11.5,"",0.0,0.0,0,1005.4,3,4,"",""
"2018-11-29 00:19:00",11.4,"",0.0,0.0,0,1005.4,2,4,"",""
"2018-11-29 00:20:00",11.5,"",0.0,0.0,0,1005.4,2,3,"",""
"2018-11-29 00:21:00",11.5,"",0.0,0.0,0,1005.3,1,2,"",""
"2018-11-29 00:22:00",11.5,"",0.0,0.0,0,1005.3,2,3,"",""
"2018-11-29 00:23:00",11.5,"",0.0,0.0,0,1005.4,3,6,"",""
"2018-11-29 00:24:00",11.5,"",0.0,0.0,0,1005.3,1,2,"",""
"2018-11-29 00:25:00",11.5,"",0.0,0.0,0,1005.3,2,3,"",""
"2018-11-29 00:26:00",11.5,"",0.0,0.0,0,1005.3,2,4,"",""
"2018-11-29 00:27:00",11.5,"",0.0,0.0,0,1005.2,1,3,"",""
"2018-11-29 00:28:00",11.5,"",0.0,0.0,0,1005.2,3,5,"",""
"2018-11-29 00:29:00",11.5,"",0.0,0.0,0,1005.2,3,6,"",""
"2018-11-29 00:30:00",11.5,"",0.0,0.0,0,1005.2,3,5,"",""
"2018-11-29 00:31:00",11.5,"",0.0,0.0,0,1005.2,2,3,"",""
"2018-11-29 00:32:00",11.5,"",0.0,0.0,0,1005.2,4,7,"",""
"2018-11-29 00:33:00",11.5,"",0.0,0.0,0,1005.2,3,5,"",""
"2018-11-29 00:34:00",11.5,"",0.0,0.0,0,1005.1,3,4,"",""
"2018-11-29 00:35:00",11.5,"",0.0,0.0,0,1005.1,3,5,"",""
"2018-11-29 00:36:00",11.5,"",0.0,0.0,0,1005.0,3,5,"",""
"2018-11-29 00:37:00",11.5,"",0.0,0.0,0,1005.0,3,5,"",""
"2018-11-29 00:38:00",11.5,"",0.0,0.0,0,1005.1,2,3,"",""
"2018-11-29 00:39:00",11.5,"",0.0,0.0,0,1005.1,2,4,"",""
"2018-11-29 00:40:00",11.5,"",0.0,0.0,0,1005.1,3,5,"",""
"2018-11-29 00:41:00",11.5,"",0.0,0.0,0,1005.0,4,6,"",""
"2018-11-29 00:42:00",11.5,"",0.0,0.0,0,1005.0,2,4,"",""
"2018-11-29 00:43:00",11.6,"",0.0,0.0,0,1005.0,2,3,"",""
"2018-11-29 00:44:00",11.5,"",0.0,0.0,0,1005.0,2,3,"",""
"2018-11-29 00:45:00",11.6,"",0.0,0.0,0,1004.9,2,4,"",""
"2018-11-29 00:46:00",11.6,"",0.0,0.0,0,1004.9,4,7,"",""
"2018-11-29 00:47:00",11.6,"",0.0,0.0,0,1004.9,3,5,"",""
"2018-11-29 00:48:00",11.6,"",0.0,0.0,0,1004.9,4,6,"",""
"2018-11-29 00:49:00",11.6,"",0.0,0.0,0,1004.9,2,3,"",""
"2018-11-29 00:50:00",11.6,"",0.0,0.0,0,1004.9,2,6,"",""
"2018-11-29 00:51:00",11.6,"",0.0,0.0,0,1004.8,3,7,"",""
"2018-11-29 00:52:00",11.6,"",0.0,0.0,0,1004.8,5,7,"",""
"2018-11-29 00:53:00",11.6,"",0.0,0.0,0,1004.8,3,6,"",""
"2018-11-29 00:54:00",11.6,"",0.0,0.0,0,1004.8,2,4,"",""
"2018-11-29 00:55:00",11.6,"",0.0,0.0,0,1004.8,1,2,"",""
"2018-11-29 00:56:00",11.6,"",0.0,0.0,0,1004.8,2,4,"",""
"2018-11-29 00:57:00",11.6,"",0.0,0.0,0,1004.8,1,4,"",""
"2018-11-29 00:58:00",11.6,"",0.0,0.0,0,1004.8,3,5,"",""
"2018-11-29 00:59:00",11.6,"",0.0,0.0,0,1004.8,2,3,"",""
"2018-11-29 01:00:00",11.6,"",0.0,0.0,0,1004.7,2,5,"",""
"2018-11-29 01:01:00",11.6,"",0.0,0.0,0,1004.7,2,4,"",""
"2018-11-29 01:02:00",11.6,"",0.0,0.0,0,1004.7,3,4,"",""
"2018-11-29 01:03:00",11.6,"",0.0,0.0,0,1004.8,2,3,"",""
"2018-11-29 01:04:00",11.6,"",0.0,0.0,0,1004.7,1,3,"",""
"2018-11-29 01:05:00",11.6,"",0.0,0.0,0,1004.7,2,4,"",""
"2018-11-29 01:06:00",11.6,"",0.0,0.0,0,1004.7,3,5,"",""
"2018-11-29 01:07:00",11.6,"",0.0,0.0,0,1004.7,1,2,"",""
"2018-11-29 01:08:00",11.6,"",0.0,0.0,0,1004.7,2,5,"",""
"2018-11-29 01:09:00",11.6,"",0.0,0.0,0,1004.7,3,4,"",""
"2018-11-29 01:10:00",11.6,"",0.0,0.0,0,1004.7,1,4,"",""
"2018-11-29 01:11:00",11.6,"",0.0,0.0,0,1004.7,3,5,"",""
"2018-11-29 01:12:00",11.6,"",0.0,0.0,0,1004.6,3,7,"",""
"2018-11-29 01:13:00",11.6,"",0.0,0.0,0,1004.6,2,6,"",""
"2018-11-29 01:14:00",11.6,"",0.2,0.0,0,1004.7,4,6,"",""
"2018-11-29 01:15:00",11.6,"",0.2,0.0,0,1004.6,1,3,"",""
"2018-11-29 01:16:00",11.6,"",0.2,0.0,0,1004.6,2,4,"",""
"2018-11-29 01:17:00",11.6,"",0.2,0.0,0,1004.6,3,5,"",""
"2018-11-29 01:18:00",11.6,"",0.2,0.0,0,1004.6,5,8,"",""
"2018-11-29 01:19:00",11.6,"",0.2,0.0,0,1004.6,1,2,"",""
"2018-11-29 01:20:00",11.6,"",0.2,0.0,0,1004.6,1,3,"",""
"2018-11-29 01:21:00",11.7,"",0.2,0.0,0,1004.5,2,3,"",""
"2018-11-29 01:22:00",11.7,"",0.2,0.0,0,1004.5,1,3,"",""
"2018-11-29 01:23:00",11.7,"",0.2,0.0,0,1004.6,6,10,"",""
"2018-11-29 01:24:00",11.7,"",0.2,0.0,0,1004.6,5,10,"",""
"2018-11-29 01:25:00",11.7,"",0.2,0.0,0,1004.5,2,5,"",""
"2018-11-29 01:26:00",11.7,"",0.2,0.0,0,1004.5,1,4,"",""
"2018-11-29 01:27:00",11.7,"",0.2,0.0,0,1004.5,1,4,"",""
"2018-11-29 01:28:00",11.7,"",0.2,0.0,0,1004.5,3,5,"",""
"2018-11-29 01:29:00",11.7,"",0.4,0.0,0,1004.5,3,6,"",""
"2018-11-29 01:30:00",11.7,"",0.4,0.0,0,1004.5,3,4,"",""
"2018-11-29 01:31:00",11.7,"",0.4,0.0,0,1004.5,2,5,"",""
"2018-11-29 01:32:00",11.7,"",0.4,0.0,0,1004.5,1,3,"",""
"2018-11-29 01:33:00",11.7,"",0.4,0.0,0,1004.5,2,3,"",""
"2018-11-29 01:34:00",11.7,"",0.4,0.0,0,1004.5,4,8,"",""
"2018-11-29 01:35:00",11.7,"",0.4,0.0,0,1004.5,4,8,"",""
"2018-11-29 01:36:00",11.7,"",0.4,0.0,0,1004.5,3,7,"",""
"2018-11-29 01:37:00",11.7,"",0.4,0.0,0,1004.5,1,3,"",""
"2018-11-29 01:38:00",11.7,"",0.4,0.0,0,1004.4,2,4,"",""
"2018-11-29 01:39:00",11.8,"",0.4,0.0,0,1004.5,1,3,"",""
"2018-11-29 01:40:00",11.7,"",0.4,0.0,0,1004.5,2,4,"",""
"2018-11-29 01:41:00",11.8,"",0.4,0.0,0,1004.5,0,2,"",""
"2018-11-29 01:42:00",11.7,"",0.4,0.0,0,1004.5,4,9,"",""
"2018-11-29 01:43:00",11.8,"",0.4,0.0,0,1004.4,5,8,"",""
"2018-11-29 01:44:00",11.8,"",0.4,0.0,0,1004.5,3,5,"",""
"2018-11-29 01:45:00",11.8,"",0.4,0.0,0,1004.4,2,4,"",""
"2018-11-29 01:46:00",11.8,"",0.4,0.0,0,1004.5,5,9,"",""
"2018-11-29 01:47:00",11.8,"",0.4,0.0,0,1004.4,3,6,"",""
"2018-11-29 01:48:00",11.8,"",0.4,0.0,0,1004.4,1,3,"",""
"2018-11-29 01:49:00",11.8,"",0.4,0.0,0,1004.3,1,3,"",""
"2018-11-29 01:50:00",11.8,"",0.4,0.0,0,1004.4,6,12,"",""
"2018-11-29 01:51:00",11.8,"",0.4,0.0,0,1004.3,4,7,"",""
"2018-11-29 01:52:00",11.8,"",0.4,0.0,0,1004.3,3,5,"",""
"2018-11-29 01:53:00",11.8,"",0.4,0.0,0,1004.3,4,6,"",""
"2018-11-29 01:54:00",11.8,"",0.4,0.0,0,1004.3,3,6,"",""
"2018-11-29 01:55:00",11.8,"",0.4,0.0,0,1004.2,4,7,"",""
"2018-11-29 01:56:00",11.8,"",0.6,0.0,0,1004.2,5,12,"",""
"2018-11-29 01:57:00",11.8,"",0.6,0.0,0,1004.2,4,9,"",""
"2018-11-29 01:58:00",11.7,"",0.6,0.0,0,1004.2,3,5,"",""
"2018-11-29 01:59:00",11.8,"",0.6,0.0,0,1004.1,2,4,"",""
"2018-11-29 02:00:00",11.8,"",0.6,0.0,0,1004.1,2,3,"",""
"2018-11-29 02:01:00",11.8,"",0.6,0.0,0,1004.1,2,2,"",""
"2018-11-29 02:02:00",11.8,"",0.6,0.0,0,1004.1,1,3,"",""
"2018-11-29 02:03:00",11.7,"",0.6,0.0,0,1004.1,4,10,"",""
"2018-11-29 02:04:00",11.7,"",0.6,0.0,0,1004.1,4,5,"",""
"2018-11-29 02:05:00",11.7,"",0.6,0.0,0,1004.0,3,7,"",""
"2018-11-29 02:06:00",11.7,"",0.6,0.0,0,1004.0,5,9,"",""
"2018-11-29 02:07:00",11.7,"",0.6,0.0,0,1004.0,5,8,"",""
"2018-11-29 02:08:00",11.7,"",0.6,0.0,0,1004.0,5,9,"",""
"2018-11-29 02:09:00",11.7,"",0.6,0.0,0,1004.0,5,9,"",""
"2018-11-29 02:10:00",11.7,"",0.6,0.0,0,1003.9,4,9,"",""
"2018-11-29 02:11:00",11.7,"",0.6,0.0,0,1004.0,2,4,"",""
"2018-11-29 02:12:00",11.7,"",0.6,0.0,0,1003.9,5,9,"",""
"2018-11-29 02:13:00",11.7,"",0.6,0.0,0,1003.9,5,8,"",""
"2018-11-29 02:14:00",11.7,"",0.6,0.0,0,1004.0,2,5,"",""
"2018-11-29 02:15:00",11.7,"",0.6,0.0,0,1004.0,6,16,"",""
"2018-11-29 02:16:00",11.7,"",0.6,0.0,0,1003.9,4,7,"",""
"2018-11-29 02:17:00",11.7,"",0.8,0.0,0,1004.0,3,6,"",""
"2018-11-29 02:18:00",11.7,"",0.8,0.0,0,1004.0,6,11,"",""
"2018-11-29 02:19:00",11.7,"",0.8,0.0,0,1003.9,5,12,"",""
"2018-11-29 02:20:00",11.7,"",0.8,0.0,0,1004.0,5,9,"",""
"2018-11-29 02:21:00",11.7,"",0.8,0.0,0,1004.0,8,13,"",""
"2018-11-29 02:22:00",11.7,"",0.8,0.0,0,1003.9,4,8,"",""
"2018-11-29 02:23:00",11.7,"",0.8,0.0,0,1003.9,5,8,"",""
"2018-11-29 02:24:00",11.7,"",0.8,0.0,0,1003.9,2,4,"",""
"2018-11-29 02:25:00",11.7,"",0.8,0.0,0,1003.9,3,5,"",""
"2018-11-29 02:26:00",11.7,"",0.8,0.0,0,1003.9,3,7,"",""
"2018-11-29 02:27:00",11.7,"",0.8,0.0,0,1003.9,2,4,"",""
"2018-11-29 02:28:00",11.7,"",0.8,0.0,0,1003.9,5,9,"",""
"2018-11-29 02:29:00",11.7,"",0.8,0.0,0,1003.8,4,6,"",""
"2018-11-29 02:30:00",11.7,"",0.8,0.0,0,1003.8,3,7,"",""
"2018-11-29 02:31:00",11.7,"",0.8,0.0,0,1003.9,2,4,"",""
"2018-11-29 02:32:00",11.7,"",0.8,0.0,0,1003.8,4,7,"",""
"2018-11-29 02:33:00",11.7,"",0.8,0.0,0,1003.8,4,6,"",""
"2018-11-29 02:34:00",11.7,"",0.8,0.0,0,1003.7,5,7,"",""
"2018-11-29 02:35:00",11.7,"",0.8,0.0,0,1003.8,4,7,"",""
"2018-11-29 02:36:00",11.7,"",0.8,0.0,0,1003.7,3,6,"",""
"2018-11-29 02:37:00",11.7,"",0.8,0.0,0,1003.7,3,8,"",""
"2018-11-29 02:38:00",11.7,"",0.8,0.0,0,1003.6,4,7,"",""
"2018-11-29 02:39:00",11.7,"",0.8,0.0,0,1003.6,6,9,"",""
"2018-11-29 02:40:00",11.7,"",1.0,0.0,0,1003.7,7,13,"",""
"2018-11-29 02:41:00",11.7,"",1.0,0.0,0,1003.7,3,7,"",""
"2018-11-29 02:42:00",11.7,"",1.0,0.0,0,1003.6,4,9,"",""
"2018-11-29 02:43:00",11.7,"",1.0,0.0,0,1003.7,4,6,"",""
"2018-11-29 02:44:00",11.7,"",1.0,0.0,0,1003.7,5,13,"",""
"2018-11-29 02:45:00",11.6,"",1.0,0.0,0,1003.6,6,11,"",""
"2018-11-29 02:46:00",11.6,"",1.0,0.0,0,1003.6,3,8,"",""
"2018-11-29 02:47:00",11.6,"",1.0,0.0,0,1003.6,6,10,"",""
"2018-11-29 02:48:00",11.6,"",1.0,0.0,0,1003.5,8,22,"",""
"2018-11-29 02:49:00",11.6,"",1.0,0.0,0,1003.5,6,10,"",""
"2018-11-29 02:50:00",11.6,"",1.0,0.0,0,1003.5,2,5,"",""
"2018-11-29 02:51:00",11.6,"",1.0,0.0,0,1003.5,4,7,"",""
"2018-11-29 02:52:00",11.6,"",1.0,0.0,0,1003.4,4,7,"",""
"2018-11-29 02:53:00",11.6,"",1.0,0.0,0,1003.4,4,6,"",""
"2018-11-29 02:54:00",11.6,"",1.0,0.0,0,1003.4,2,4,"",""
"2018-11-29 02:55:00",11.6,"",1.0,0.0,0,1003.4,4,9,"",""
"2018-11-29 02:56:00",11.6,"",1.0,0.0,0,1003.4,4,5,"",""
"2018-11-29 02:57:00",11.6,"",1.0,0.0,0,1003.3,5,14,"",""
"2018-11-29 02:58:00",11.6,"",1.0,0.0,0,1003.3,6,14,"",""
"2018-11-29 02:59:00",11.6,"",1.0,0.0,0,1003.3,5,9,"",""
"2018-11-29 03:00:00",11.6,"",1.0,0.0,0,1003.3,3,5,"",""
"2018-11-29 03:01:00",11.6,"",1.0,0.0,0,1003.2,5,11,"",""
"2018-11-29 03:02:00",11.6,"",1.0,0.0,0,1003.2,9,13,"",""
"2018-11-29 03:03:00",11.6,"",1.0,0.0,0,1003.1,5,10,"",""
"2018-11-29 03:04:00",11.6,"",1.0,0.0,0,1003.1,2,4,"",""
"2018-11-29 03:05:00",11.6,"",1.0,0.0,0,1003.0,4,10,"",""
"2018-11-29 03:06:00",11.6,"",1.0,0.0,0,1003.1,3,8,"",""
"2018-11-29 03:07:00",11.6,"",1.0,0.0,0,1003.0,3,8,"",""
"2018-11-29 03:08:00",11.6,"",1.0,0.0,0,1003.0,6,11,"",""
"2018-11-29 03:09:00",11.6,"",1.0,0.0,0,1002.9,4,6,"",""
"2018-11-29 03:10:00",11.5,"",1.0,0.0,0,1002.9,6,9,"",""
"2018-11-29 03:11:00",11.5,"",1.0,0.0,0,1002.9,3,8,"",""
"2018-11-29 03:12:00",11.5,"",1.0,0.0,0,1002.9,2,4,"",""
"2018-11-29 03:13:00",11.5,"",1.0,0.0,0,1002.9,5,10,"",""
"2018-11-29 03:14:00",11.5,"",1.0,0.0,0,1002.9,9,20,"",""
"2018-11-29 03:15:00",11.5,"",1.0,0.0,0,1002.8,6,14,"",""
"2018-11-29 03:16:00",11.5,"",1.0,0.0,0,1002.9,5,9,"",""
"2018-11-29 03:17:00",11.5,"",1.0,0.0,0,1002.8,2,5,"",""
"2018-11-29 03:18:00",11.5,"",1.0,0.0,0,1002.9,7,15,"",""
"2018-11-29 03:19:00",11.5,"",1.0,0.0,0,1002.9,7,17,"",""
"2018-11-29 03:20:00",11.5,"",1.0,0.0,0,1002.9,4,6,"",""
"2018-11-29 03:21:00",11.5,"",1.0,0.0,0,1002.8,4,10,"",""
"2018-11-29 03:22:00",11.5,"",1.0,0.0,0,1002.9,5,9,"",""
"2018-11-29 03:23:00",11.5,"",1.0,0.0,0,1002.9,3,6,"",""
"2018-11-29 03:24:00",11.5,"",1.0,0.0,0,1002.9,6,10,"",""
"2018-11-29 03:25:00",11.5,"",1.0,0.0,0,1002.8,5,13,"",""
"2018-11-29 03:26:00",11.5,"",1.0,0.0,0,1002.8,4,8,"",""
"2018-11-29 03:27:00",11.4,"",1.0,0.0,0,1002.8,5,8,"",""
"2018-11-29 03:28:00",11.5,"",1.2,0.0,0,1002.8,6,9,"",""
"2018-11-29 03:29:00",11.4,"",1.2,0.0,0,1002.8,3,7,"",""
"2018-11-29 03:30:00",11.4,"",1.2,0.0,0,1002.7,4,7,"",""
"2018-11-29 03:31:00",11.4,"",1.2,0.0,0,1002.8,3,5,"",""
"2018-11-29 03:32:00",11.4,"",1.2,0.0,0,1002.8,2,3,"",""
"2018-11-29 03:33:00",11.4,"",1.2,0.0,0,1002.8,7,12,"",""
"2018-11-29 03:34:00",11.4,"",1.2,0.0,0,1002.8,3,6,"",""
"2018-11-29 03:35:00",11.4,"",1.2,0.0,0,1002.8,3,4,"",""
"2018-11-29 03:36:00",11.4,"",1.2,0.0,0,1002.7,6,9,"",""
"2018-11-29 03:37:00",11.4,"",1.2,0.0,0,1002.6,3,5,"",""
"2018-11-29 03:38:00",11.4,"",1.2,0.0,0,1002.6,2,4,"",""
"2018-11-29 03:39:00",11.4,"",1.2,0.0,0,1002.6,3,8,"",""
"2018-11-29 03:40:00",11.4,"",1.2,0.0,0,1002.6,5,16,"",""
"2018-11-29 03:41:00",11.4,"",1.2,0.0,0,1002.7,8,15,"",""
"2018-11-29 03:42:00",11.4,"",1.2,0.0,0,1002.5,4,9,"",""
"2018-11-29 03:43:00",11.4,"",1.2,0.0,0,1002.5,2,6,"",""
"2018-11-29 03:44:00",11.4,"",1.2,0.0,0,1002.4,5,9,"",""
"2018-11-29 03:45:00",11.4,"",1.2,0.0,0,1002.5,7,19,"",""
"2018-11-29 03:46:00",11.4,"",1.2,0.0,0,1002.4,4,9,"",""
"2018-11-29 03:47:00",11.4,"",1.2,0.0,0,1002.4,6,8,"",""
"2018-11-29 03:48:00",11.4,"",1.2,0.0,0,1002.3,7,13,"",""
"2018-11-29 03:49:00",11.4,"",1.2,0.0,0,1002.5,3,7,"",""
"2018-11-29 03:50:00",11.4,"",1.2,0.0,0,1002.4,4,8,"",""
"2018-11-29 03:51:00",11.4,"",1.2,0.0,0,1002.4,5,8,"",""
"2018-11-29 03:52:00",11.4,"",1.2,0.0,0,1002.3,8,15,"",""
"2018-11-29 03:53:00",11.3,"",1.2,0.0,0,1002.3,6,10,"",""
"2018-11-29 03:54:00",11.4,"",1.2,0.0,0,1002.3,6,11,"",""
"2018-11-29 03:55:00",11.4,"",1.2,0.0,0,1002.3,4,8,"",""
"2018-11-29 03:56:00",11.3,"",1.2,0.0,0,1002.3,8,14,"",""
"2018-11-29 03:57:00",11.4,"",1.2,0.0,0,1002.3,8,13,"",""
"2018-11-29 03:58:00",11.3,"",1.2,0.0,0,1002.2,2,7,"",""
"2018-11-29 03:59:00",11.3,"",1.2,0.0,0,1002.2,5,11,"",""
"2018-11-29 04:00:00",11.3,"",1.2,0.0,0,1002.2,6,11,"",""
"2018-11-29 04:01:00",11.3,"",1.2,0.0,0,1002.1,9,16,"",""
"2018-11-29 04:02:00",11.3,"",1.2,0.0,0,1002.1,8,12,"",""
"2018-11-29 04:03:00",11.3,"",1.2,0.0,0,1002.1,5,12,"",""
"2018-11-29 04:04:00",11.3,"",1.2,0.0,0,1002.2,6,9,"",""
"2018-11-29 04:05:00",11.3,"",1.2,0.0,0,1002.1,4,6,"",""
"2018-11-29 04:06:00",11.3,"",1.2,0.0,0,1002.1,3,5,"",""
"2018-11-29 04:07:00",11.3,"",1.2,0.0,0,1002.2,3,5,"",""
"2018-11-29 04:08:00",11.3,"",1.2,0.0,0,1002.2,5,8,"",""
"2018-11-29 04:09:00",11.3,"",1.2,0.0,0,1002.1,2,4,"",""
"2018-11-29 04:10:00",11.3,"",1.2,0.0,0,1002.1,4,10,"",""
"2018-11-29 04:11:00",11.3,"",1.2,0.0,0,1002.0,6,11,"",""
"2018-11-29 04:12:00",11.3,"",1.2,0.0,0,1002.0,3,7,"",""
"2018-11-29 04:13:00",11.3,"",1.2,0.0,0,1002.0,2,5,"",""
"2018-11-29 04:14:00",11.3,"",1.4,0.0,0,1002.0,8,14,"",""
"2018-11-29 04:15:00",11.3,"",1.4,0.0,0,1002.0,5,9,"",""
"2018-11-29 04:16:00",11.3,"",1.4,0.0,0,1002.0,4,7,"",""
"2018-11-29 04:17:00",11.3,"",1.4,0.0,0,1002.1,4,7,"",""
"2018-11-29 04:18:00",11.3,"",1.4,0.0,0,1002.1,4,7,"",""
"2018-11-29 04:19:00",11.3,"",1.4,0.0,0,1002.0,5,8,"",""
"2018-11-29 04:20:00",11.4,"",1.4,0.0,0,1002.0,7,17,"",""
"2018-11-29 04:21:00",11.4,"",1.4,0.0,0,1002.0,6,12,"",""
"2018-11-29 04:22:00",11.3,"",1.4,0.0,0,1001.9,5,8,"",""
"2018-11-29 04:23:00",11.3,"",1.4,0.0,0,1001.9,4,8,"",""
"2018-11-29 04:24:00",11.3,"",1.4,0.0,0,1001.9,4,13,"",""
"2018-11-29 04:25:00",11.3,"",1.4,0.0,0,1001.9,7,15,"",""
"2018-11-29 04:26:00",11.3,"",1.4,0.0,0,1001.9,3,7,"",""
"2018-11-29 04:27:00",11.3,"",1.4,0.0,0,1001.9,7,14,"",""
"2018-11-29 04:28:00",11.3,"",1.4,0.0,0,1001.9,4,7,"",""
"2018-11-29 04:29:00",11.3,"",1.4,0.0,0,1001.8,4,9,"",""
"2018-11-29 04:30:00",11.3,"",1.4,0.0,0,1001.9,7,14,"",""
"2018-11-29 04:31:00",11.3,"",1.4,0.0,0,1001.9,4,8,"",""
"2018-11-29 04:32:00",11.3,"",1.4,0.0,0,1001.9,7,11,"",""
"2018-11-29 04:33:00",11.3,"",1.4,0.0,0,1001.9,7,13,"",""
"2018-11-29 04:34:00",11.3,"",1.4,0.0,0,1001.9,2,5,"",""
"2018-11-29 04:35:00",11.3,"",1.4,0.0,0,1001.9,3,11,"",""
"2018-11-29 04:36:00",11.3,"",1.4,0.0,0,1001.9,6,12,"",""
"2018-11-29 04:37:00",11.3,"",1.4,0.0,0,1001.9,7,12,"",""
"2018-11-29 04:38:00",11.3,"",1.6,0.0,0,1001.8,12,19,"",""
"2018-11-29 04:39:00",11.3,"",1.6,0.0,0,1001.8,9,15,"",""
"2018-11-29 04:40:00",11.3,"",1.6,0.0,0,1001.9,5,12,"",""
"2018-11-29 04:41:00",11.3,"",1.6,0.0,0,1001.7,7,13,"",""
"2018-11-29 04:42:00",11.3,"",1.6,0.0,0,1001.8,6,12,"",""
"2018-11-29 04:43:00",11.3,"",1.6,0.0,0,1001.7,5,11,"",""
"2018-11-29 04:44:00",11.3,"",1.6,0.0,0,1001.7,6,17,"",""
"2018-11-29 04:45:00",11.3,"",1.6,0.0,0,1001.8,6,15,"",""
"2018-11-29 04:46:00",11.3,"",1.6,0.0,0,1001.7,5,11,"",""
"2018-11-29 04:47:00",11.3,"",1.6,0.0,0,1001.7,6,17,"",""
"2018-11-29 04:48:00",11.3,"",1.6,0.0,0,1001.8,8,16,"",""
"2018-11-29 04:49:00",11.3,"",1.6,0.0,0,1001.7,7,13,"",""
"2018-11-29 04:50:00",11.3,"",1.6,0.0,0,1001.6,5,10,"",""
"2018-11-29 04:51:00",11.3,"",1.6,0.0,0,1001.6,4,9,"",""
"2018-11-29 04:52:00",11.3,"",1.6,0.0,0,1001.5,7,13,"",""
"2018-11-29 04:53:00",11.3,"",1.6,0.0,0,1001.6,9,12,"",""
"2018-11-29 04:54:00",11.3,"",1.6,0.0,0,1001.6,9,16,"",""
"2018-11-29 04:55:00",11.3,"",1.6,0.0,0,1001.6,7,16,"",""
"2018-11-29 04:56:00",11.3,"",1.6,0.0,0,1001.6,6,10,"",""
"2018-11-29 04:57:00",11.3,"",1.6,0.0,0,1001.6,6,12,"",""
"2018-11-29 04:58:00",11.3,"",1.6,0.0,0,1001.6,3,7,"",""
"2018-11-29 04:59:00",11.3,"",1.6,0.0,0,1001.6,5,13,"",""
"2018-11-29 05:00:00",11.3,"",1.6,0.0,0,1001.5,3,4,"",""
"2018-11-29 05:01:00",11.3,"",1.8,0.0,0,1001.5,3,11,"",""
"2018-11-29 05:02:00",11.3,"",1.8,0.0,0,1001.6,5,10,"",""
"2018-11-29 05:03:00",11.3,"",2.0,0.0,0,1001.6,3,4,"",""
"2018-11-29 05:04:00",11.3,"",2.0,0.0,0,1001.5,6,18,"",""
"2018-11-29 05:05:00",11.3,"",2.0,0.0,0,1001.4,8,14,"",""
"2018-11-29 05:06:00",11.3,"",2.2,0.0,0,1001.5,10,15,"",""
"2018-11-29 05:07:00",11.3,"",2.2,0.0,0,1001.4,7,10,"",""
"2018-11-29 05:08:00",11.3,"",2.4,0.0,0,1001.3,6,10,"",""
"2018-11-29 05:09:00",11.3,"",2.4,0.0,0,1001.3,3,11,"",""
"2018-11-29 05:10:00",11.3,"",2.4,0.0,0,1001.3,5,11,"",""
"2018-11-29 05:11:00",11.3,"",2.4,0.0,0,1001.2,5,10,"",""
"2018-11-29 05:12:00",11.3,"",2.6,0.0,0,1001.3,5,9,"",""
"2018-11-29 05:13:00",11.3,"",2.6,0.0,0,1001.2,5,8,"",""
"2018-11-29 05:14:00",11.3,"",2.6,0.0,0,1001.2,7,13,"",""
"2018-11-29 05:15:00",11.3,"",2.6,0.0,0,1001.2,3,6,"",""
"2018-11-29 05:16:00",11.3,"",2.6,0.0,0,1001.1,3,9,"",""
"2018-11-29 05:17:00",11.3,"",2.6,0.0,0,1001.1,6,11,"",""
"2018-11-29 05:18:00",11.3,"",2.6,0.0,0,1001.0,6,10,"",""
"2018-11-29 05:19:00",11.3,"",2.6,0.0,0,1001.0,5,8,"",""
"2018-11-29 05:20:00",11.3,"",2.6,0.0,0,1001.0,5,10,"",""
"2018-11-29 05:21:00",11.3,"",2.6,0.0,0,1001.1,4,6,"",""
"2018-11-29 05:22:00",11.3,"",2.6,0.0,0,1001.1,4,9,"",""
"2018-11-29 05:23:00",11.3,"",2.8,0.0,0,1001.1,6,11,"",""
"2018-11-29 05:24:00",11.3,"",2.8,0.0,0,1000.9,7,11,"",""
"2018-11-29 05:25:00",11.3,"",2.8,0.0,0,1001.0,6,12,"",""
"2018-11-29 05:26:00",11.3,"",2.8,0.0,0,1000.9,7,13,"",""
"2018-11-29 05:27:00",11.3,"",2.8,0.0,0,1000.9,6,11,"",""
"2018-11-29 05:28:00",11.3,"",3.0,0.0,0,1000.9,3,6,"",""
"2018-11-29 05:29:00",11.3,"",3.0,0.0,0,1001.0,6,13,"",""
"2018-11-29 05:30:00",11.3,"",3.0,0.0,0,1000.8,4,9,"",""
"2018-11-29 05:31:00",11.3,"",3.0,0.0,0,1000.7,2,4,"",""
"2018-11-29 05:32:00",11.3,"",3.0,0.0,0,1000.8,3,5,"",""
"2018-11-29 05:33:00",11.3,"",3.2,0.0,0,1000.7,4,9,"",""
"2018-11-29 05:34:00",11.3,"",3.2,0.0,0,1000.7,8,16,"",""
"2018-11-29 05:35:00",11.3,"",3.2,0.0,0,1000.7,8,13,"",""
"2018-11-29 05:36:00",11.3,"",3.2,0.0,0,1000.6,11,20,"",""
"2018-11-29 05:37:00",11.3,"",3.2,0.0,0,1000.6,2,7,"",""
"2018-11-29 05:38:00",11.3,"",3.2,0.0,0,1000.6,2,6,"",""
"2018-11-29 05:39:00",11.3,"",3.2,0.0,0,1000.6,7,17,"",""
"2018-11-29 05:40:00",11.3,"",3.2,0.0,0,1000.5,6,9,"",""
"2018-11-29 05:41:00",11.3,"",3.2,0.0,0,1000.6,4,7,"",""
"2018-11-29 05:42:00",11.3,"",3.2,0.0,0,1000.5,4,7,"",""
"2018-11-29 05:43:00",11.4,"",3.2,0.0,0,1000.5,6,13,"",""
"2018-11-29 05:44:00",11.4,"",3.2,0.0,0,1000.5,6,16,"",""
"2018-11-29 05:45:00",11.4,"",3.2,0.0,0,1000.5,9,19,"",""
"2018-11-29 05:46:00",11.4,"",3.2,0.0,0,1000.4,8,14,"",""
"2018-11-29 05:47:00",11.4,"",3.2,0.0,0,1000.4,9,13,"",""
"2018-11-29 05:48:00",11.4,"",3.2,0.0,0,1000.4,8,17,"",""
"2018-11-29 05:49:00",11.4,"",3.2,0.0,0,1000.4,11,19,"",""
"2018-11-29 05:50:00",11.4,"",3.2,0.0,0,1000.2,9,16,"",""
"2018-11-29 05:51:00",11.4,"",3.2,0.0,0,1000.2,5,10,"",""
"2018-11-29 05:52:00",11.4,"",3.2,0.0,0,1000.2,3,12,"",""
"2018-11-29 05:53:00",11.4,"",3.2,0.0,0,1000.2,7,12,"",""
"2018-11-29 05:54:00",11.4,"",3.2,0.0,0,1000.3,5,7,"",""
"2018-11-29 05:55:00",11.4,"",3.2,0.0,0,1000.4,7,12,"",""
"2018-11-29 05:56:00",11.4,"",3.2,0.0,0,1000.3,5,8,"",""
"2018-11-29 05:57:00",11.4,"",3.2,0.0,0,1000.3,3,6,"",""
"2018-11-29 05:58:00",11.5,"",3.2,0.0,0,1000.2,3,4,"",""
"2018-11-29 05:59:00",11.5,"",3.2,0.0,0,1000.1,5,8,"",""
"2018-11-29 06:00:00",11.5,"",3.2,0.0,0,1000.2,6,8,"",""
"2018-11-29 06:01:00",11.5,"",3.2,0.0,0,1000.2,4,7,"",""
"2018-11-29 06:02:00",11.5,"",3.2,0.0,0,1000.1,4,17,"",""
"2018-11-29 06:03:00",11.5,"",3.2,0.0,0,1000.1,7,12,"",""
"2018-11-29 06:04:00",11.5,"",3.2,0.0,0,1000.1,10,19,"",""
"2018-11-29 06:05:00",11.5,"",3.2,0.0,0,1000.1,8,18,"",""
"2018-11-29 06:06:00",11.5,"",3.2,0.0,0,1000.1,6,15,"",""
"2018-11-29 06:07:00",11.5,"",3.2,0.0,0,1000.0,7,11,"",""
"2018-11-29 06:08:00",11.5,"",3.2,0.0,0,1000.1,5,10,"",""
"2018-11-29 06:09:00",11.5,"",3.2,0.0,0,999.9,4,7,"",""
"2018-11-29 06:10:00",11.5,"",3.2,0.0,0,999.9,5,8,"",""
"2018-11-29 06:11:00",11.5,"",3.2,0.0,0,1000.0,6,16,"",""
"2018-11-29 06:12:00",11.6,"",3.2,0.0,0,999.9,5,6,"",""
"2018-11-29 06:13:00",11.6,"",3.2,0.0,0,999.9,6,10,"",""
"2018-11-29 06:14:00",11.5,"",3.2,0.0,0,1000.0,7,10,"",""
"2018-11-29 06:15:00",11.6,"",3.2,0.0,0,999.9,3,7,"",""
"2018-11-29 06:16:00",11.5,"",3.2,0.0,0,1000.0,3,6,"",""
"2018-11-29 06:17:00",11.6,"",3.2,0.0,0,1000.0,4,9,"",""
"2018-11-29 06:18:00",11.6,"",3.2,0.0,0,999.9,6,15,"",""
"2018-11-29 06:19:00",11.6,"",3.2,0.0,0,999.9,7,19,"",""
"2018-11-29 06:20:00",11.6,"",3.2,0.0,0,999.8,6,9,"",""
"2018-11-29 06:21:00",11.6,"",3.2,0.0,0,999.8,7,14,"",""
"2018-11-29 06:22:00",11.6,"",3.2,0.0,0,999.8,7,13,"",""
"2018-11-29 06:23:00",11.6,"",3.2,0.0,0,999.9,12,16,"",""
"2018-11-29 06:24:00",11.6,"",3.4,0.0,0,999.9,11,29,"",""
"2018-11-29 06:25:00",11.6,"",3.4,0.0,0,999.9,6,10,"",""
"2018-11-29 06:26:00",11.6,"",3.4,0.0,0,999.9,5,14,"",""
"2018-11-29 06:27:00",11.6,"",3.4,0.0,0,999.9,4,10,"",""
"2018-11-29 06:28:00",11.6,"",3.4,0.0,0,999.8,4,7,"",""
"2018-11-29 06:29:00",11.6,"",3.4,0.0,0,999.8,8,14,"",""
"2018-11-29 06:30:00",11.6,"",3.4,0.0,0,999.8,6,13,"",""
"2018-11-29 06:31:00",11.6,"",3.4,0.0,0,999.8,6,10,"",""
"2018-11-29 06:32:00",11.6,"",3.4,0.0,0,999.8,9,16,"",""
"2018-11-29 06:33:00",11.6,"",3.4,0.0,0,999.7,7,15,"",""
"2018-11-29 06:34:00",11.6,"",3.4,0.0,0,999.7,2,5,"",""
"2018-11-29 06:35:00",11.6,"",3.4,0.0,0,999.7,5,14,"",""
"2018-11-29 06:36:00",11.6,"",3.4,0.0,0,999.6,1,2,"",""
"2018-11-29 06:37:00",11.6,"",3.6,0.0,0,999.6,2,3,"",""
"2018-11-29 06:38:00",11.6,"",3.6,0.0,0,999.7,8,14,"",""
"2018-11-29 06:39:00",11.6,"",3.6,0.0,0,999.6,5,11,"",""
"2018-11-29 06:40:00",11.6,"",3.6,0.0,0,999.7,5,11,"",""
"2018-11-29 06:41:00",11.6,"",3.6,0.0,0,999.6,6,12,"",""
"2018-11-29 06:42:00",11.6,"",3.6,0.0,0,999.5,6,14,"",""
"2018-11-29 06:43:00",11.6,"",3.6,0.0,0,999.4,4,8,"",""
"2018-11-29 06:44:00",11.6,"",3.6,0.0,0,999.5,4,8,"",""
"2018-11-29 06:45:00",11.6,"",3.6,0.0,0,999.4,4,6,"",""
"2018-11-29 06:46:00",11.6,"",3.8,0.0,0,999.4,4,8,"",""
"2018-11-29 06:47:00",11.6,"",3.8,0.0,0,999.4,7,13,"",""
"2018-11-29 06:48:00",11.6,"",3.8,0.0,0,999.3,3,4,"",""
"2018-11-29 06:49:00",11.6,"",3.8,0.0,0,999.3,5,9,"",""
"2018-11-29 06:50:00",11.6,"",3.8,0.0,0,999.3,5,11,"",""
"2018-11-29 06:51:00",11.6,"",3.8,0.0,0,999.3,4,8,"",""
"2018-11-29 06:52:00",11.6,"",3.8,0.0,0,999.3,4,10,"",""
"2018-11-29 06:53:00",11.6,"",3.8,0.0,0,999.3,5,8,"",""
"2018-11-29 06:54:00",11.6,"",3.8,0.0,0,999.2,7,13,"",""
"2018-11-29 06:55:00",11.6,"",3.8,0.0,0,999.2,6,9,"",""
"2018-11-29 06:56:00",11.6,"",3.8,0.0,0,999.2,4,8,"",""